DAL1563 KIAH-KLAX

Flight info

Callsign DAL1563
Flight time 3h 5m
Altitude 32000
Route PITZZ5 CRGER JCT J86 FIGMO/N0446F340 J86 ELP SSO J4 BXK WLVRN ESTWD HLYWD1
Aircraft A21N/M-SDE2E3FGHIRWXY/LB1

Departure

Time 2026-04-20 02:09
Airport George Bush Intercontinental Airport (KIAH)

Arrival

Time 2026-04-20 05:14
Airport Los Angeles International Airport (KLAX)
Time Latitude Longitude Altitude Speed Heading
2026-04-20 01:48 29.98844 -95.34998 112 ft 0 kts 122°
2026-04-20 01:58 29.98842 -95.34994 104 ft 4 kts 121°
2026-04-20 01:59 29.98856 -95.35019 102 ft 4 kts 130°
2026-04-20 01:59 29.98875 -95.35040 111 ft 4 kts 147°
2026-04-20 01:59 29.98899 -95.35053 110 ft 4 kts 167°
2026-04-20 01:59 29.98920 -95.35056 112 ft 0 kts 182°
2026-04-20 02:03 29.98915 -95.35056 110 ft 2 kts 189°
2026-04-20 02:04 29.98890 -95.35078 112 ft 7 kts 238°
2026-04-20 02:04 29.98876 -95.35151 112 ft 11 kts 272°
2026-04-20 02:04 29.98878 -95.35205 112 ft 0 kts 271°
2026-04-20 02:05 29.98878 -95.35209 112 ft 2 kts 271°
2026-04-20 02:05 29.98880 -95.35248 112 ft 8 kts 279°
2026-04-20 02:05 29.98918 -95.35320 111 ft 13 kts 287°
2026-04-20 02:06 29.98922 -95.35445 112 ft 18 kts 266°
2026-04-20 02:06 29.98876 -95.35571 112 ft 17 kts 240°
2026-04-20 02:06 29.98840 -95.35648 111 ft 8 kts 242°
2026-04-20 02:06 29.98812 -95.35707 111 ft 9 kts 241°
2026-04-20 02:07 29.98768 -95.35751 114 ft 9 kts 201°
2026-04-20 02:07 29.98704 -95.35734 112 ft 11 kts 177°
2026-04-20 02:07 29.98652 -95.35703 113 ft 6 kts 150°
2026-04-20 02:07 29.98645 -95.35699 113 ft 0 kts 152°
2026-04-20 02:08 29.98587 -95.35664 113 ft 33 kts 152°
2026-04-20 02:08 29.98158 -95.35402 113 ft 105 kts 152°
2026-04-20 02:08 29.97322 -95.34891 111 ft 164 kts 152°
2026-04-20 02:08 29.96270 -95.34276 581 ft 169 kts 152°
2026-04-20 02:09 29.95237 -95.33596 1171 ft 175 kts 156°
2026-04-20 02:09 29.93945 -95.33622 1512 ft 204 kts 198°
2026-04-20 02:09 29.92840 -95.34751 1935 ft 226 kts 234°
2026-04-20 02:09 29.92020 -95.36395 2366 ft 248 kts 238°
2026-04-20 02:10 29.91100 -95.38185 2796 ft 270 kts 237°
2026-04-20 02:10 29.90100 -95.40065 3496 ft 278 kts 236°
2026-04-20 02:10 29.89235 -95.41666 4242 ft 278 kts 236°
2026-04-20 02:10 29.88743 -95.42575 4724 ft 276 kts 237°
2026-04-20 02:11 29.87770 -95.44474 5667 ft 274 kts 239°
2026-04-20 02:11 29.86821 -95.46376 6537 ft 275 kts 239°
2026-04-20 02:11 29.85867 -95.48281 7340 ft 275 kts 239°
2026-04-20 02:11 29.84913 -95.50201 8082 ft 278 kts 240°
2026-04-20 02:12 29.83979 -95.52137 8809 ft 280 kts 241°
2026-04-20 02:12 29.83098 -95.54152 9543 ft 283 kts 251°
2026-04-20 02:12 29.82806 -95.56383 10186 ft 287 kts 274°
2026-04-20 02:12 29.83377 -95.58629 10505 ft 303 kts 297°
2026-04-20 02:13 29.84461 -95.60791 10785 ft 320 kts 301°
2026-04-20 02:13 29.85581 -95.62913 11246 ft 328 kts 301°
2026-04-20 02:13 29.86748 -95.65170 11923 ft 330 kts 300°
2026-04-20 02:13 29.87908 -95.67466 12677 ft 330 kts 300°
2026-04-20 02:14 29.89052 -95.69756 13445 ft 331 kts 300°
2026-04-20 02:14 29.90198 -95.72063 14184 ft 332 kts 300°
2026-04-20 02:14 29.91348 -95.74384 14845 ft 333 kts 300°
2026-04-20 02:14 29.92495 -95.76707 15500 ft 335 kts 300°
2026-04-20 02:15 29.93651 -95.79049 16137 ft 336 kts 300°
2026-04-20 02:15 29.94809 -95.81396 16778 ft 338 kts 300°
2026-04-20 02:15 29.95973 -95.83760 17421 ft 340 kts 299°
2026-04-20 02:15 29.97140 -95.86139 18058 ft 341 kts 299°
2026-04-20 02:16 29.98308 -95.88527 18670 ft 343 kts 299°
2026-04-20 02:16 29.99479 -95.90902 19174 ft 346 kts 299°
2026-04-20 02:16 30.00687 -95.93355 19702 ft 348 kts 299°
2026-04-20 02:16 30.01868 -95.95756 20198 ft 350 kts 298°
2026-04-20 02:17 30.03065 -95.98206 20698 ft 351 kts 298°
2026-04-20 02:17 30.04268 -96.00667 21185 ft 353 kts 298°
2026-04-20 02:17 30.05478 -96.03140 21677 ft 355 kts 297°
2026-04-20 02:17 30.06647 -96.05658 22156 ft 356 kts 292°
2026-04-20 02:18 30.07404 -96.08377 22627 ft 357 kts 282°
2026-04-20 02:18 30.07864 -96.11204 23087 ft 359 kts 279°
2026-04-20 02:18 30.08285 -96.14047 23565 ft 360 kts 279°
2026-04-20 02:18 30.08712 -96.16903 23974 ft 362 kts 279°
2026-04-20 02:19 30.09147 -96.19769 24370 ft 363 kts 279°
2026-04-20 02:19 30.09587 -96.22650 24751 ft 365 kts 278°
2026-04-20 02:19 30.10032 -96.25541 25148 ft 366 kts 278°
2026-04-20 02:19 30.10478 -96.28444 25516 ft 367 kts 278°
2026-04-20 02:20 30.10926 -96.31351 25882 ft 369 kts 278°
2026-04-20 02:20 30.11375 -96.34271 26237 ft 370 kts 278°
2026-04-20 02:20 30.11823 -96.37206 26588 ft 371 kts 278°
2026-04-20 02:20 30.12269 -96.40145 26951 ft 373 kts 278°
2026-04-20 02:21 30.13168 -96.46077 27623 ft 376 kts 277°
2026-04-20 02:21 30.13616 -96.49052 27931 ft 378 kts 277°
2026-04-20 02:21 30.14069 -96.52043 28234 ft 380 kts 277°
2026-04-20 02:22 30.14522 -96.55019 28555 ft 381 kts 277°
2026-04-20 02:22 30.14993 -96.58084 28871 ft 383 kts 277°
2026-04-20 02:22 30.15449 -96.61071 29185 ft 384 kts 277°
2026-04-20 02:22 30.15905 -96.64123 29494 ft 386 kts 277°
2026-04-20 02:23 30.16361 -96.67185 29803 ft 387 kts 277°
2026-04-20 02:23 30.16822 -96.70252 30120 ft 388 kts 276°
2026-04-20 02:23 30.17287 -96.73336 30398 ft 390 kts 277°
2026-04-20 02:23 30.17756 -96.76419 30654 ft 391 kts 276°
2026-04-20 02:24 30.18226 -96.79526 30929 ft 391 kts 276°
2026-04-20 02:24 30.18688 -96.82622 31245 ft 390 kts 276°
2026-04-20 02:24 30.19152 -96.85709 31612 ft 387 kts 276°
2026-04-20 02:24 30.19608 -96.88764 31926 ft 386 kts 276°
2026-04-20 02:25 30.20057 -96.91782 32235 ft 384 kts 276°
2026-04-20 02:25 30.20510 -96.94812 32373 ft 382 kts 276°
2026-04-20 02:25 30.20958 -96.97835 32383 ft 381 kts 276°
2026-04-20 02:26 30.21839 -97.03867 32369 ft 379 kts 276°
2026-04-20 02:26 30.22725 -97.09878 32348 ft 379 kts 276°
2026-04-20 02:27 30.23627 -97.15872 32269 ft 379 kts 276°
2026-04-20 02:27 30.24516 -97.21878 32264 ft 379 kts 276°
2026-04-20 02:28 30.25409 -97.27888 32259 ft 379 kts 276°
2026-04-20 02:28 30.26302 -97.33905 32279 ft 379 kts 276°
2026-04-20 02:29 30.27193 -97.39911 32278 ft 379 kts 276°
2026-04-20 02:29 30.28073 -97.45925 32281 ft 379 kts 276°
2026-04-20 02:30 30.28952 -97.51928 32282 ft 379 kts 276°
2026-04-20 02:30 30.29834 -97.57957 32295 ft 381 kts 276°
2026-04-20 02:31 30.30724 -97.64058 32304 ft 385 kts 275°
2026-04-20 02:31 30.31608 -97.70165 32311 ft 385 kts 275°
2026-04-20 02:32 30.32703 -97.76241 32327 ft 387 kts 279°
2026-04-20 02:32 30.33998 -97.82287 32331 ft 387 kts 279°
2026-04-20 02:33 30.35276 -97.88299 32343 ft 387 kts 279°
2026-04-20 02:33 30.36554 -97.94344 32342 ft 386 kts 279°
2026-04-20 02:34 30.37826 -98.00396 32346 ft 388 kts 279°
2026-04-20 02:34 30.39108 -98.06487 32350 ft 389 kts 279°
2026-04-20 02:35 30.40381 -98.12572 32342 ft 389 kts 278°
2026-04-20 02:35 30.41654 -98.18649 32325 ft 388 kts 278°
2026-04-20 02:36 30.42920 -98.24740 32329 ft 389 kts 279°
2026-04-20 02:36 30.44187 -98.30829 32330 ft 388 kts 278°
2026-04-20 02:37 30.45209 -98.36957 32329 ft 387 kts 273°
2026-04-20 02:37 30.45850 -98.43117 32331 ft 388 kts 273°
2026-04-20 02:38 30.46502 -98.49318 32309 ft 388 kts 273°
2026-04-20 02:38 30.47151 -98.55526 32300 ft 388 kts 273°
2026-04-20 02:39 30.47695 -98.60685 32303 ft 388 kts 273°
2026-04-20 02:39 30.48348 -98.66928 32300 ft 388 kts 273°
2026-04-20 02:40 30.48985 -98.73096 32291 ft 388 kts 273°
2026-04-20 02:40 30.49636 -98.79371 32295 ft 390 kts 273°
2026-04-20 02:41 30.50271 -98.85573 32290 ft 390 kts 273°
2026-04-20 02:41 30.50918 -98.91819 32286 ft 390 kts 273°
2026-04-20 02:42 30.51559 -98.98076 32282 ft 390 kts 273°
2026-04-20 02:42 30.52188 -99.04323 32285 ft 390 kts 273°
2026-04-20 02:43 30.52818 -99.10580 32270 ft 391 kts 273°
2026-04-20 02:43 30.53452 -99.16857 32276 ft 392 kts 273°
2026-04-20 02:44 30.54079 -99.23149 32276 ft 392 kts 273°
2026-04-20 02:44 30.54705 -99.29440 32267 ft 392 kts 273°
2026-04-20 02:45 30.55320 -99.35725 32267 ft 392 kts 272°
2026-04-20 02:45 30.55937 -99.42024 32270 ft 392 kts 273°
2026-04-20 02:46 30.56553 -99.48277 32276 ft 394 kts 273°
2026-04-20 02:46 30.57176 -99.54627 32292 ft 395 kts 273°
2026-04-20 02:47 30.57797 -99.60957 32302 ft 395 kts 272°
2026-04-20 02:47 30.58411 -99.67306 32311 ft 395 kts 272°
2026-04-20 02:48 30.59017 -99.73658 32319 ft 395 kts 272°
2026-04-20 02:48 30.59613 -99.80019 32317 ft 396 kts 272°
2026-04-20 02:49 30.60346 -99.86321 32310 ft 398 kts 275°
2026-04-20 02:49 30.61143 -99.92686 32291 ft 398 kts 274°
2026-04-20 02:50 30.61930 -99.99057 32286 ft 398 kts 275°
2026-04-20 02:50 30.62716 -100.05418 32281 ft 398 kts 274°
2026-04-20 02:51 30.63492 -100.11776 32270 ft 398 kts 274°
2026-04-20 02:51 30.64267 -100.18141 32276 ft 398 kts 274°
2026-04-20 02:52 30.65042 -100.24516 32271 ft 400 kts 274°
2026-04-20 02:52 30.65818 -100.30917 32278 ft 401 kts 274°
2026-04-20 02:53 30.66592 -100.37330 32317 ft 401 kts 274°
2026-04-20 02:53 30.67362 -100.43734 32341 ft 400 kts 274°
2026-04-20 02:54 30.68118 -100.50109 32355 ft 400 kts 274°
2026-04-20 02:54 30.68879 -100.56516 32367 ft 400 kts 274°
2026-04-20 02:55 30.69642 -100.62922 32375 ft 400 kts 275°
2026-04-20 02:55 30.70396 -100.69334 32372 ft 400 kts 275°
2026-04-20 02:56 30.71148 -100.75746 32361 ft 400 kts 275°
2026-04-20 02:56 30.71901 -100.82157 32350 ft 400 kts 275°
2026-04-20 02:57 30.72648 -100.88573 32338 ft 400 kts 275°
2026-04-20 02:57 30.73386 -100.94979 32343 ft 400 kts 275°
2026-04-20 02:58 30.74127 -101.01399 32357 ft 400 kts 275°
2026-04-20 02:58 30.74873 -101.07821 32374 ft 400 kts 275°
2026-04-20 02:59 30.75606 -101.14238 32380 ft 400 kts 274°
2026-04-20 02:59 30.76331 -101.20665 32392 ft 404 kts 274°
2026-04-20 03:00 30.77065 -101.27175 32311 ft 406 kts 275°
2026-04-20 03:00 30.77802 -101.33643 32297 ft 407 kts 274°
2026-04-20 03:01 30.78543 -101.40164 32298 ft 407 kts 274°
2026-04-20 03:01 30.79269 -101.46693 32288 ft 407 kts 274°
2026-04-20 03:02 30.79990 -101.53232 32286 ft 407 kts 274°
2026-04-20 03:02 30.80712 -101.59756 32291 ft 407 kts 274°
2026-04-20 03:03 30.81439 -101.66281 32282 ft 407 kts 274°
2026-04-20 03:03 30.82158 -101.72808 32283 ft 405 kts 274°
2026-04-20 03:04 30.82861 -101.79264 32279 ft 405 kts 274°
2026-04-20 03:04 30.83574 -101.85804 32269 ft 405 kts 274°
2026-04-20 03:05 30.84273 -101.92292 32271 ft 405 kts 274°
2026-04-20 03:05 30.84975 -101.98800 32269 ft 405 kts 274°
2026-04-20 03:06 30.85666 -102.05260 32267 ft 404 kts 274°
2026-04-20 03:06 30.86353 -102.11743 32246 ft 403 kts 274°
2026-04-20 03:07 30.87044 -102.18224 32244 ft 404 kts 274°
2026-04-20 03:07 30.87735 -102.24705 32236 ft 403 kts 274°
2026-04-20 03:08 30.88418 -102.31192 32248 ft 403 kts 274°
2026-04-20 03:08 30.89097 -102.37674 32249 ft 403 kts 274°
2026-04-20 03:09 30.89771 -102.44147 32249 ft 402 kts 273°
2026-04-20 03:09 30.90445 -102.50617 32229 ft 402 kts 273°
2026-04-20 03:10 30.91111 -102.57097 32254 ft 405 kts 274°
2026-04-20 03:10 30.91781 -102.63634 32249 ft 407 kts 274°
2026-04-20 03:11 30.92446 -102.70143 32265 ft 407 kts 273°
2026-04-20 03:11 30.93102 -102.76734 32276 ft 406 kts 272°
2026-04-20 03:12 30.93635 -102.83259 32287 ft 408 kts 272°
2026-04-20 03:12 30.94290 -102.89831 32213 ft 409 kts 274°
2026-04-20 03:13 30.95055 -102.96388 32201 ft 410 kts 276°
2026-04-20 03:13 30.96597 -103.02822 32200 ft 414 kts 283°
2026-04-20 03:14 30.98379 -103.09201 32199 ft 414 kts 283°
2026-04-20 03:14 31.00142 -103.15585 32206 ft 414 kts 283°
2026-04-20 03:15 31.01898 -103.21984 32197 ft 414 kts 283°
2026-04-20 03:15 31.03650 -103.28383 32196 ft 414 kts 283°
2026-04-20 03:16 31.05401 -103.34795 32200 ft 414 kts 283°
2026-04-20 03:16 31.07147 -103.41199 32217 ft 414 kts 283°
2026-04-20 03:17 31.08888 -103.47603 32243 ft 414 kts 283°
2026-04-20 03:17 31.10642 -103.54070 32240 ft 419 kts 283°
2026-04-20 03:18 31.12397 -103.60548 32238 ft 419 kts 283°
2026-04-20 03:18 31.14152 -103.67040 32237 ft 419 kts 283°
2026-04-20 03:19 31.15902 -103.73531 32229 ft 419 kts 283°
2026-04-20 03:19 31.17637 -103.79979 32219 ft 419 kts 283°
2026-04-20 03:20 31.19381 -103.86476 32214 ft 418 kts 283°
2026-04-20 03:20 31.21111 -103.92933 32209 ft 416 kts 283°
2026-04-20 03:21 31.23005 -103.99324 32207 ft 419 kts 288°
2026-04-20 03:21 31.25158 -104.05653 32207 ft 417 kts 284°
2026-04-20 03:22 31.26960 -104.12075 32201 ft 416 kts 283°
2026-04-20 03:22 31.28588 -104.18556 32209 ft 414 kts 278°
2026-04-20 03:23 31.29613 -104.24058 32217 ft 417 kts 280°
2026-04-20 03:23 31.31188 -104.30607 32203 ft 418 kts 282°
2026-04-20 03:24 31.32894 -104.37116 32201 ft 419 kts 283°
2026-04-20 03:24 31.34616 -104.43634 32197 ft 419 kts 283°
2026-04-20 03:25 31.36330 -104.50151 32195 ft 419 kts 283°
2026-04-20 03:25 31.38108 -104.56597 32194 ft 420 kts 285°
2026-04-20 03:26 31.40119 -104.63031 32206 ft 421 kts 285°
2026-04-20 03:26 31.42124 -104.69467 32195 ft 421 kts 285°
2026-04-20 03:27 31.44115 -104.75921 32190 ft 421 kts 285°
2026-04-20 03:27 31.46103 -104.82371 32180 ft 420 kts 285°
2026-04-20 03:28 31.48080 -104.88809 32188 ft 421 kts 285°
2026-04-20 03:28 31.51043 -104.98487 32180 ft 422 kts 285°
2026-04-20 03:29 31.53029 -105.04983 32174 ft 422 kts 285°
2026-04-20 03:29 31.55004 -105.11464 32165 ft 422 kts 285°
2026-04-20 03:30 31.56984 -105.17949 32162 ft 422 kts 285°
2026-04-20 03:30 31.58954 -105.24434 32156 ft 422 kts 285°
2026-04-20 03:31 31.60918 -105.30922 32162 ft 422 kts 285°
2026-04-20 03:31 31.62884 -105.37410 32149 ft 422 kts 285°
2026-04-20 03:32 31.64823 -105.43855 32151 ft 422 kts 285°
2026-04-20 03:32 31.66773 -105.50347 32156 ft 422 kts 285°
2026-04-20 03:33 31.68728 -105.56851 32148 ft 423 kts 285°
2026-04-20 03:33 31.70672 -105.63375 32148 ft 423 kts 285°
2026-04-20 03:34 31.72636 -105.69905 32142 ft 424 kts 285°
2026-04-20 03:34 31.74596 -105.76435 32139 ft 424 kts 285°
2026-04-20 03:35 31.76549 -105.82979 32131 ft 424 kts 285°
2026-04-20 03:35 31.78492 -105.89516 32132 ft 424 kts 285°
2026-04-20 03:36 31.80437 -105.96065 32116 ft 424 kts 285°
2026-04-20 03:36 31.82381 -106.02614 32136 ft 425 kts 285°
2026-04-20 03:37 31.84323 -106.09177 32146 ft 425 kts 285°
2026-04-20 03:37 31.86244 -106.15726 32174 ft 427 kts 285°
2026-04-20 03:38 31.88197 -106.22333 32190 ft 428 kts 285°
2026-04-20 03:38 31.90127 -106.28934 32209 ft 427 kts 285°
2026-04-20 03:39 31.92052 -106.35550 32224 ft 427 kts 285°
2026-04-20 03:39 31.93993 -106.42155 32210 ft 427 kts 285°
2026-04-20 03:40 31.95936 -106.48757 32189 ft 427 kts 285°
2026-04-20 03:40 31.97867 -106.55378 32196 ft 427 kts 285°
2026-04-20 03:41 31.99784 -106.61992 32213 ft 427 kts 285°
2026-04-20 03:41 32.01694 -106.68612 32214 ft 427 kts 285°
2026-04-20 03:42 32.03600 -106.75235 32206 ft 429 kts 285°
2026-04-20 03:42 32.05530 -106.81891 32179 ft 432 kts 285°
2026-04-20 03:43 32.07462 -106.88598 32167 ft 432 kts 285°
2026-04-20 03:43 32.09395 -106.95318 32178 ft 432 kts 285°
2026-04-20 03:44 32.11326 -107.02031 32180 ft 432 kts 285°
2026-04-20 03:44 32.13245 -107.08758 32174 ft 433 kts 285°
2026-04-20 03:45 32.15170 -107.15488 32153 ft 433 kts 285°
2026-04-20 03:45 32.17090 -107.22233 32131 ft 433 kts 285°
2026-04-20 03:46 32.19001 -107.28967 32097 ft 433 kts 285°
2026-04-20 03:46 32.20916 -107.35723 32100 ft 433 kts 285°
2026-04-20 03:47 32.22811 -107.42422 32130 ft 434 kts 285°
2026-04-20 03:47 32.24720 -107.49183 32156 ft 434 kts 284°
2026-04-20 03:48 32.26624 -107.55945 32174 ft 434 kts 284°
2026-04-20 03:48 32.28517 -107.62708 32200 ft 434 kts 284°
2026-04-20 03:49 32.30419 -107.69486 32202 ft 434 kts 284°
2026-04-20 03:49 32.32310 -107.76255 32211 ft 433 kts 284°
2026-04-20 03:50 32.34195 -107.83013 32083 ft 433 kts 284°
2026-04-20 03:50 32.36074 -107.89781 32066 ft 433 kts 284°
2026-04-20 03:51 32.37959 -107.96552 32104 ft 434 kts 284°
2026-04-20 03:51 32.39843 -108.03387 32131 ft 437 kts 284°
2026-04-20 03:52 32.41731 -108.10222 32168 ft 438 kts 284°
2026-04-20 03:52 32.43625 -108.17077 32169 ft 437 kts 284°
2026-04-20 03:53 32.45507 -108.23919 32188 ft 437 kts 284°
2026-04-20 03:53 32.47377 -108.30747 32166 ft 437 kts 284°
2026-04-20 03:54 32.49248 -108.37601 32144 ft 437 kts 284°
2026-04-20 03:54 32.51121 -108.44451 32117 ft 438 kts 284°
2026-04-20 03:55 32.52998 -108.51321 32071 ft 438 kts 284°
2026-04-20 03:55 32.54858 -108.58176 32027 ft 437 kts 284°
2026-04-20 03:56 32.56715 -108.65043 32021 ft 438 kts 284°
2026-04-20 03:56 32.58579 -108.71928 32004 ft 438 kts 284°
2026-04-20 03:57 32.60435 -108.78814 32015 ft 438 kts 284°
2026-04-20 03:57 32.62293 -108.85715 31988 ft 440 kts 284°
2026-04-20 03:58 32.64151 -108.92644 31991 ft 440 kts 284°
2026-04-20 03:58 32.66006 -108.99572 31982 ft 440 kts 284°
2026-04-20 03:59 32.67855 -109.06502 31980 ft 441 kts 284°
2026-04-20 03:59 32.69702 -109.13436 31977 ft 441 kts 284°
2026-04-20 04:00 32.71554 -109.20389 32232 ft 441 kts 284°
2026-04-20 04:00 32.72472 -109.23851 32585 ft 439 kts 283°
2026-04-20 04:00 32.73239 -109.27297 32900 ft 436 kts 279°
2026-04-20 04:01 32.73951 -109.30843 33225 ft 435 kts 280°
2026-04-20 04:01 32.74725 -109.34274 33537 ft 435 kts 282°
2026-04-20 04:01 32.75589 -109.37715 33836 ft 435 kts 283°
2026-04-20 04:01 32.76495 -109.41145 34041 ft 436 kts 284°
2026-04-20 04:02 32.78389 -109.48009 34093 ft 437 kts 287°
2026-04-20 04:02 32.80558 -109.54754 34094 ft 437 kts 285°
2026-04-20 04:03 32.82457 -109.61617 34091 ft 436 kts 283°
2026-04-20 04:03 32.84254 -109.68484 34090 ft 436 kts 283°
2026-04-20 04:04 32.85155 -109.71942 33958 ft 436 kts 283°
2026-04-20 04:04 32.86052 -109.75389 33954 ft 436 kts 283°
2026-04-20 04:04 32.87847 -109.82293 33941 ft 437 kts 284°
2026-04-20 04:05 32.89645 -109.89224 33936 ft 438 kts 283°
2026-04-20 04:05 32.91433 -109.96134 33930 ft 437 kts 283°
2026-04-20 04:06 32.93219 -110.03058 33933 ft 437 kts 283°
2026-04-20 04:06 32.94996 -110.09965 33929 ft 437 kts 283°
2026-04-20 04:07 32.96762 -110.16844 33926 ft 436 kts 283°
2026-04-20 04:07 32.98243 -110.22628 33913 ft 436 kts 283°
2026-04-20 04:08 33.00011 -110.29551 33907 ft 436 kts 283°
2026-04-20 04:08 33.01771 -110.36461 33903 ft 436 kts 283°
2026-04-20 04:09 33.03535 -110.43410 33911 ft 440 kts 283°
2026-04-20 04:09 33.05280 -110.50358 33899 ft 440 kts 283°
2026-04-20 04:10 33.07010 -110.57344 33889 ft 439 kts 283°
2026-04-20 04:10 33.08760 -110.64333 33880 ft 439 kts 283°
2026-04-20 04:11 33.10522 -110.71311 33883 ft 439 kts 283°
2026-04-20 04:11 33.12273 -110.78296 33878 ft 439 kts 283°
2026-04-20 04:12 33.14024 -110.85286 33878 ft 439 kts 283°
2026-04-20 04:12 33.15761 -110.92255 33868 ft 438 kts 283°
2026-04-20 04:13 33.17496 -110.99235 33880 ft 439 kts 283°
2026-04-20 04:13 33.19239 -111.06242 33859 ft 441 kts 283°
2026-04-20 04:14 33.20977 -111.13268 33859 ft 441 kts 283°
2026-04-20 04:14 33.22702 -111.20246 33854 ft 440 kts 283°
2026-04-20 04:15 33.24431 -111.27268 33846 ft 440 kts 283°
2026-04-20 04:15 33.26153 -111.34284 33833 ft 440 kts 283°
2026-04-20 04:16 33.27869 -111.41311 33814 ft 440 kts 283°
2026-04-20 04:16 33.29587 -111.48352 33817 ft 440 kts 283°
2026-04-20 04:17 33.31305 -111.55386 33805 ft 440 kts 283°
2026-04-20 04:17 33.32989 -111.62378 33905 ft 440 kts 283°
2026-04-20 04:18 33.34699 -111.69414 33912 ft 441 kts 283°
2026-04-20 04:18 33.36400 -111.76459 33886 ft 441 kts 283°
2026-04-20 04:19 33.38100 -111.83505 33901 ft 441 kts 283°
2026-04-20 04:19 33.39788 -111.90518 33869 ft 441 kts 283°
2026-04-20 04:20 33.41488 -111.97627 33861 ft 441 kts 283°
2026-04-20 04:20 33.43174 -112.04692 33878 ft 441 kts 283°
2026-04-20 04:21 33.44860 -112.11756 33876 ft 441 kts 283°
2026-04-20 04:21 33.46540 -112.18829 33806 ft 441 kts 283°
2026-04-20 04:22 33.48217 -112.25890 33806 ft 441 kts 283°
2026-04-20 04:22 33.49887 -112.32965 33807 ft 441 kts 283°
2026-04-20 04:23 33.51544 -112.39983 33867 ft 441 kts 283°
2026-04-20 04:23 33.53200 -112.47062 33866 ft 441 kts 283°
2026-04-20 04:24 33.54864 -112.54164 33869 ft 442 kts 283°
2026-04-20 04:24 33.56521 -112.61253 33879 ft 442 kts 283°
2026-04-20 04:25 33.58180 -112.68356 33876 ft 442 kts 283°
2026-04-20 04:25 33.59823 -112.75456 33872 ft 441 kts 283°
2026-04-20 04:26 33.61471 -112.82542 33858 ft 440 kts 283°
2026-04-20 04:26 33.63104 -112.89627 33850 ft 440 kts 283°
2026-04-20 04:27 33.64734 -112.96690 33833 ft 440 kts 283°
2026-04-20 04:27 33.66359 -113.03772 33824 ft 440 kts 283°
2026-04-20 04:28 33.67983 -113.10859 33825 ft 440 kts 283°
2026-04-20 04:28 33.69595 -113.17926 33827 ft 442 kts 283°
2026-04-20 04:29 33.71215 -113.25040 33830 ft 442 kts 283°
2026-04-20 04:29 33.72826 -113.32162 33827 ft 442 kts 283°
2026-04-20 04:30 33.74425 -113.39290 33829 ft 442 kts 283°
2026-04-20 04:30 33.76033 -113.46405 33835 ft 442 kts 282°
2026-04-20 04:31 33.77639 -113.53537 33827 ft 442 kts 282°
2026-04-20 04:31 33.79221 -113.60672 33827 ft 442 kts 282°
2026-04-20 04:32 33.80833 -113.67801 33827 ft 442 kts 283°
2026-04-20 04:32 33.82439 -113.74932 33826 ft 442 kts 282°
2026-04-20 04:33 33.84028 -113.82039 33828 ft 439 kts 282°
2026-04-20 04:33 33.85602 -113.89141 33821 ft 441 kts 282°
2026-04-20 04:34 33.87180 -113.96259 33822 ft 440 kts 282°
2026-04-20 04:34 33.88739 -114.03339 33820 ft 440 kts 282°
2026-04-20 04:35 33.90309 -114.10478 33822 ft 439 kts 282°
2026-04-20 04:35 33.91578 -114.17661 33814 ft 438 kts 279°
2026-04-20 04:36 33.93385 -114.28443 33815 ft 438 kts 279°
2026-04-20 04:37 33.94604 -114.35631 33807 ft 438 kts 279°
2026-04-20 04:37 33.95831 -114.42841 33817 ft 438 kts 279°
2026-04-20 04:38 33.97041 -114.50008 33813 ft 438 kts 279°
2026-04-20 04:38 33.98245 -114.57201 33813 ft 438 kts 279°
2026-04-20 04:39 33.99441 -114.64394 33814 ft 438 kts 279°
2026-04-20 04:39 34.00624 -114.71546 33814 ft 438 kts 279°
2026-04-20 04:40 34.01814 -114.78744 33822 ft 438 kts 279°
2026-04-20 04:40 34.02993 -114.85935 33822 ft 436 kts 279°
2026-04-20 04:41 34.04172 -114.93113 33823 ft 436 kts 279°
2026-04-20 04:41 34.05329 -115.00279 33823 ft 435 kts 278°
2026-04-20 04:42 34.06494 -115.07386 33827 ft 429 kts 280°
2026-04-20 04:42 34.07654 -115.14447 33830 ft 429 kts 279°
2026-04-20 04:43 34.08798 -115.21503 33833 ft 429 kts 279°
2026-04-20 04:43 34.09910 -115.28485 33840 ft 429 kts 279°
2026-04-20 04:44 34.11043 -115.35557 33842 ft 428 kts 280°
2026-04-20 04:44 34.12177 -115.42602 33847 ft 428 kts 280°
2026-04-20 04:45 34.13309 -115.49655 33846 ft 427 kts 280°
2026-04-20 04:45 34.14433 -115.56686 33858 ft 427 kts 280°
2026-04-20 04:46 34.15548 -115.63736 33856 ft 427 kts 280°
2026-04-20 04:46 34.16200 -115.70816 33854 ft 425 kts 267°
2026-04-20 04:47 34.15546 -115.77921 33894 ft 425 kts 263°
2026-04-20 04:47 34.14826 -115.85003 33799 ft 423 kts 264°
2026-04-20 04:47 34.14492 -115.88447 33501 ft 413 kts 264°
2026-04-20 04:48 34.14161 -115.91844 33231 ft 403 kts 264°
2026-04-20 04:48 34.13830 -115.95184 32963 ft 399 kts 264°
2026-04-20 04:48 34.13503 -115.98495 32706 ft 395 kts 264°
2026-04-20 04:48 34.13180 -116.01781 32453 ft 393 kts 264°
2026-04-20 04:49 34.12860 -116.05045 32200 ft 392 kts 264°
2026-04-20 04:49 34.12540 -116.08311 31945 ft 390 kts 264°
2026-04-20 04:49 34.12223 -116.11556 31693 ft 389 kts 264°
2026-04-20 04:49 34.11903 -116.14807 31446 ft 388 kts 264°
2026-04-20 04:50 34.11585 -116.18031 31197 ft 386 kts 264°
2026-04-20 04:50 34.11271 -116.21245 30952 ft 385 kts 264°
2026-04-20 04:50 34.10954 -116.24445 30706 ft 384 kts 264°
2026-04-20 04:50 34.10631 -116.27648 30393 ft 382 kts 265°
2026-04-20 04:51 34.10312 -116.30828 30154 ft 381 kts 265°
2026-04-20 04:51 34.09981 -116.33992 29905 ft 380 kts 265°
2026-04-20 04:51 34.09644 -116.37139 29628 ft 378 kts 265°
2026-04-20 04:51 34.09310 -116.40250 29345 ft 377 kts 265°
2026-04-20 04:52 34.08971 -116.43408 29073 ft 375 kts 264°
2026-04-20 04:52 34.08639 -116.46493 28798 ft 374 kts 264°
2026-04-20 04:52 34.08306 -116.49597 28535 ft 373 kts 264°
2026-04-20 04:52 34.07975 -116.52678 28222 ft 371 kts 264°
2026-04-20 04:53 34.07642 -116.55753 27762 ft 367 kts 264°
2026-04-20 04:53 34.07310 -116.58800 27294 ft 364 kts 264°
2026-04-20 04:53 34.07098 -116.60838 26966 ft 363 kts 265°
2026-04-20 04:53 34.06817 -116.63856 26490 ft 362 kts 265°
2026-04-20 04:54 34.06544 -116.66836 26010 ft 360 kts 264°
2026-04-20 04:54 34.06266 -116.69861 25538 ft 359 kts 264°
2026-04-20 04:54 34.05990 -116.72849 25093 ft 357 kts 264°
2026-04-20 04:54 34.05718 -116.75778 24646 ft 355 kts 264°
2026-04-20 04:55 34.05439 -116.78735 24180 ft 354 kts 263°
2026-04-20 04:55 34.05159 -116.81682 23726 ft 353 kts 263°
2026-04-20 04:55 34.04883 -116.84630 23228 ft 353 kts 263°
2026-04-20 04:55 34.04608 -116.87558 22729 ft 352 kts 263°
2026-04-20 04:56 34.04279 -116.90477 22248 ft 350 kts 261°
2026-04-20 04:56 34.03906 -116.93379 21767 ft 349 kts 260°
2026-04-20 04:56 34.03536 -116.96257 21291 ft 347 kts 260°
2026-04-20 04:56 34.03167 -116.99125 20823 ft 346 kts 259°
2026-04-20 04:57 34.02792 -117.01984 20387 ft 344 kts 259°
2026-04-20 04:57 34.02424 -117.04828 19956 ft 342 kts 260°
2026-04-20 04:57 34.02087 -117.07658 19535 ft 340 kts 260°
2026-04-20 04:57 34.01762 -117.10470 19101 ft 339 kts 260°
2026-04-20 04:58 34.01441 -117.13237 18680 ft 335 kts 259°
2026-04-20 04:58 34.01115 -117.16033 18273 ft 331 kts 259°
2026-04-20 04:58 34.00794 -117.18764 17885 ft 327 kts 259°
2026-04-20 04:58 34.00480 -117.21416 17462 ft 322 kts 259°
2026-04-20 04:59 34.00159 -117.24084 17042 ft 321 kts 259°
2026-04-20 04:59 33.99835 -117.26749 16663 ft 320 kts 259°
2026-04-20 04:59 33.99516 -117.29428 16288 ft 319 kts 259°
2026-04-20 04:59 33.99205 -117.32035 15918 ft 319 kts 259°
2026-04-20 05:00 33.98893 -117.34691 15556 ft 319 kts 259°
2026-04-20 05:00 33.98585 -117.37338 15189 ft 320 kts 259°
2026-04-20 05:00 33.98274 -117.39996 14809 ft 321 kts 259°
2026-04-20 05:00 33.97961 -117.42669 14416 ft 323 kts 259°
2026-04-20 05:01 33.97644 -117.45356 14030 ft 325 kts 259°
2026-04-20 05:01 33.97355 -117.48063 13608 ft 326 kts 263°
2026-04-20 05:01 33.97574 -117.50753 13161 ft 322 kts 280°
2026-04-20 05:01 33.98153 -117.53324 12763 ft 314 kts 283°
2026-04-20 05:02 33.98764 -117.55807 12385 ft 306 kts 283°
2026-04-20 05:02 33.99346 -117.58232 12034 ft 303 kts 283°
2026-04-20 05:02 33.99924 -117.60695 11679 ft 302 kts 282°
2026-04-20 05:02 34.00489 -117.63136 11311 ft 303 kts 282°
2026-04-20 05:03 34.01051 -117.65582 10938 ft 304 kts 282°
2026-04-20 05:03 34.01605 -117.68014 10551 ft 305 kts 282°
2026-04-20 05:03 34.01934 -117.70517 10185 ft 301 kts 266°
2026-04-20 05:03 34.01756 -117.73008 9806 ft 297 kts 260°
2026-04-20 05:04 34.01493 -117.75440 9555 ft 287 kts 259°
2026-04-20 05:04 34.01246 -117.77776 9229 ft 276 kts 259°
2026-04-20 05:04 34.01014 -117.80047 8975 ft 268 kts 260°
2026-04-20 05:04 34.00796 -117.82226 8733 ft 257 kts 259°
2026-04-20 05:05 34.00586 -117.84339 8274 ft 251 kts 259°
2026-04-20 05:05 34.00391 -117.86308 7932 ft 240 kts 259°
2026-04-20 05:05 34.00201 -117.88266 7698 ft 230 kts 259°
2026-04-20 05:05 34.00020 -117.90155 7361 ft 226 kts 259°
2026-04-20 05:06 33.99838 -117.92014 6981 ft 224 kts 259°
2026-04-20 05:06 33.99648 -117.93877 6596 ft 224 kts 259°
2026-04-20 05:06 33.99458 -117.95741 6252 ft 224 kts 259°
2026-04-20 05:06 33.99272 -117.97584 6035 ft 224 kts 260°
2026-04-20 05:07 33.99088 -117.99447 5937 ft 224 kts 260°
2026-04-20 05:07 33.98903 -118.01312 5714 ft 223 kts 260°
2026-04-20 05:07 33.98720 -118.03164 5348 ft 221 kts 261°
2026-04-20 05:07 33.98536 -118.04998 5010 ft 220 kts 261°
2026-04-20 05:08 33.98382 -118.06838 4758 ft 220 kts 264°
2026-04-20 05:08 33.98238 -118.08670 4414 ft 218 kts 261°
2026-04-20 05:08 33.98060 -118.10474 4083 ft 216 kts 261°
2026-04-20 05:08 33.97878 -118.12268 3960 ft 216 kts 261°
2026-04-20 05:09 33.97694 -118.14068 3969 ft 216 kts 261°
2026-04-20 05:09 33.97510 -118.15861 3929 ft 216 kts 261°
2026-04-20 05:09 33.97326 -118.17661 3734 ft 215 kts 261°
2026-04-20 05:09 33.97143 -118.19445 3476 ft 214 kts 261°
2026-04-20 05:10 33.96961 -118.21221 3201 ft 213 kts 261°
2026-04-20 05:10 33.96803 -118.22980 2931 ft 211 kts 264°
2026-04-20 05:10 33.96740 -118.24676 2672 ft 199 kts 266°
2026-04-20 05:10 33.96645 -118.26298 2496 ft 183 kts 264°
2026-04-20 05:11 33.96515 -118.27811 2332 ft 184 kts 262°
2026-04-20 05:11 33.96354 -118.29288 2131 ft 170 kts 262°
2026-04-20 05:11 33.96206 -118.30601 1990 ft 145 kts 261°
2026-04-20 05:11 33.96072 -118.31774 1598 ft 140 kts 262°
2026-04-20 05:12 33.95945 -118.32934 1323 ft 139 kts 262°
2026-04-20 05:12 33.95834 -118.34092 1153 ft 139 kts 263°
2026-04-20 05:12 33.95721 -118.35229 994 ft 136 kts 262°
2026-04-20 05:12 33.95606 -118.36352 843 ft 134 kts 263°
2026-04-20 05:13 33.95506 -118.37455 610 ft 132 kts 263°
2026-04-20 05:13 33.95389 -118.38548 404 ft 132 kts 262°
2026-04-20 05:13 33.95273 -118.39643 226 ft 131 kts 261°
2026-04-20 05:13 33.95170 -118.40709 108 ft 123 kts 262°
2026-04-20 05:14 33.95069 -118.41598 99 ft 79 kts 261°
2026-04-20 05:14 33.95020 -118.42040 100 ft 38 kts 262°
2026-04-20 05:14 33.94976 -118.42313 102 ft 21 kts 240°
2026-04-20 05:14 33.94895 -118.42426 100 ft 2 kts 225°
2026-04-20 05:15 33.94875 -118.42450 101 ft 6 kts 225°
2026-04-20 05:15 33.94820 -118.42489 103 ft 12 kts 200°
2026-04-20 05:15 33.94722 -118.42487 103 ft 16 kts 168°
2026-04-20 05:15 33.94665 -118.42387 99 ft 17 kts 83°
2026-04-20 05:16 33.94684 -118.42239 99 ft 19 kts 83°
2026-04-20 05:16 33.94699 -118.42076 99 ft 20 kts 83°
2026-04-20 05:16 33.94716 -118.41902 99 ft 22 kts 83°
2026-04-20 05:16 33.94734 -118.41716 101 ft 23 kts 83°
2026-04-20 05:17 33.94755 -118.41515 99 ft 25 kts 83°
2026-04-20 05:17 33.94783 -118.41340 99 ft 4 kts 76°
2026-04-20 05:17 33.94792 -118.41293 101 ft 7 kts 80°
2026-04-20 05:17 33.94800 -118.41221 100 ft 10 kts 83°
2026-04-20 05:18 33.94810 -118.41125 100 ft 13 kts 83°
2026-04-20 05:18 33.94822 -118.41008 100 ft 15 kts 83°
2026-04-20 05:18 33.94802 -118.40887 99 ft 7 kts 141°
2026-04-20 05:18 33.94757 -118.40883 102 ft 9 kts 206°
2026-04-20 05:19 33.94695 -118.40910 100 ft 10 kts 176°
2026-04-20 05:19 33.94619 -118.40901 100 ft 12 kts 174°
2026-04-20 05:19 33.94584 -118.40896 100 ft 0 kts 173°
2026-04-20 05:19 33.94583 -118.40896 100 ft 1 kts 173°
2026-04-20 05:20 33.94562 -118.40893 100 ft 4 kts 174°
2026-04-20 05:20 33.94524 -118.40886 99 ft 7 kts 159°
2026-04-20 05:20 33.94515 -118.40844 98 ft 5 kts 66°
2026-04-20 05:20 33.94520 -118.40822 99 ft 0 kts 74°
2026-04-20 05:21 33.94522 -118.40809 98 ft 3 kts 77°
2026-04-20 05:21 33.94524 -118.40801 99 ft 0 kts 71°
2026-04-20 05:23 33.94531 -118.40786 101 ft 0 kts 93°